Time,TemperatureF,DewpointF,PressureIn,WindDirection,WindDirectionDegrees,WindSpeedMPH,WindSpeedGustMPH,Humidity,HourlyPrecipIn,Conditions,Clouds,dailyrainin,SoftwareType,DateUTC
2013-01-11 00:02:00,59.2,56.3,29.96,SE,135,0.0,-999.0,90,0.00,,,0.00,open2300 v1.10,2013-01-11 06:02:00,
2013-01-11 00:09:00,58.8,55.9,29.96,SW,225,0.0,-999.0,90,0.00,,,0.00,open2300 v1.10,2013-01-11 06:09:00,
2013-01-11 00:15:00,58.8,55.6,29.95,SSE,157,0.0,-999.0,89,0.00,,,0.00,open2300 v1.10,2013-01-11 06:15:00,
2013-01-11 01:30:00,59.4,55.8,29.96,ESE,112,0.0,-999.0,88,0.00,,,0.00,open2300 v1.10,2013-01-11 07:30:00,
2013-01-11 01:39:00,58.8,55.3,29.97,SSW,202,0.0,-999.0,88,0.00,,,0.00,open2300 v1.10,2013-01-11 07:39:00,
2013-01-11 01:45:00,58.8,55.3,29.97,SSE,157,0.0,-999.0,88,0.00,,,0.00,open2300 v1.10,2013-01-11 07:45:00,
2013-01-11 01:54:00,58.8,55.0,29.98,SSW,202,0.0,-999.0,87,0.00,,,0.00,open2300 v1.10,2013-01-11 07:54:00,
2013-01-11 02:01:00,58.6,54.8,29.98,WSW,247,0.0,-999.0,87,0.00,,,0.00,open2300 v1.10,2013-01-11 08:01:00,
2013-01-11 02:09:00,58.3,54.8,29.98,SE,135,0.0,-999.0,88,0.00,,,0.00,open2300 v1.10,2013-01-11 08:09:00,
2013-01-11 02:15:00,58.1,54.6,29.98,West,270,0.0,-999.0,88,0.00,,,0.00,open2300 v1.10,2013-01-11 08:15:00,
2013-01-11 02:24:00,57.9,54.4,29.98,West,270,0.0,-999.0,88,0.00,,,0.00,open2300 v1.10,2013-01-11 08:24:00,
2013-01-11 02:30:00,57.6,54.0,29.98,SSW,202,0.0,-999.0,88,0.00,,,0.00,open2300 v1.10,2013-01-11 08:30:00,
2013-01-11 02:39:00,57.6,54.0,29.98,WSW,247,0.0,-999.0,88,0.00,,,0.00,open2300 v1.10,2013-01-11 08:39:00,
2013-01-11 02:45:00,57.4,53.8,29.99,South,180,0.0,-999.0,88,0.00,,,0.00,open2300 v1.10,2013-01-11 08:45:00,
2013-01-11 02:54:00,57.4,53.8,29.98,West,270,0.0,-999.0,88,0.00,,,0.00,open2300 v1.10,2013-01-11 08:54:00,
2013-01-11 03:01:00,57.6,54.0,29.98,SW,225,0.0,-999.0,88,0.00,,,0.00,open2300 v1.10,2013-01-11 09:01:00,
2013-01-11 03:09:00,57.4,53.8,29.98,WSW,247,0.0,-999.0,88,0.00,,,0.00,open2300 v1.10,2013-01-11 09:09:00,
2013-01-11 03:15:00,57.4,53.8,29.99,SW,225,0.0,-999.0,88,0.00,,,0.00,open2300 v1.10,2013-01-11 09:15:00,
2013-01-11 03:24:00,57.4,53.8,30.00,SSW,202,0.0,-999.0,88,0.00,,,0.00,open2300 v1.10,2013-01-11 09:24:00,
2013-01-11 03:30:00,57.4,54.2,30.00,West,270,0.0,-999.0,89,0.00,,,0.00,open2300 v1.10,2013-01-11 09:30:00,
2013-01-11 03:39:00,57.4,54.2,30.00,West,270,0.0,-999.0,89,0.00,,,0.00,open2300 v1.10,2013-01-11 09:39:00,
2013-01-11 03:45:00,57.6,54.4,30.00,WSW,247,0.0,-999.0,89,0.00,,,0.00,open2300 v1.10,2013-01-11 09:45:00,
2013-01-11 03:54:00,57.6,54.4,29.99,West,270,0.0,-999.0,89,0.00,,,0.00,open2300 v1.10,2013-01-11 09:54:00,
2013-01-11 04:01:00,57.6,54.0,29.99,SSE,157,0.0,-999.0,88,0.00,,,0.00,open2300 v1.10,2013-01-11 10:01:00,
2013-01-11 04:09:00,57.6,54.0,29.98,West,270,0.0,-999.0,88,0.00,,,0.00,open2300 v1.10,2013-01-11 10:09:00,
2013-01-11 04:15:00,57.6,54.0,29.99,West,270,0.0,-999.0,88,0.00,,,0.00,open2300 v1.10,2013-01-11 10:15:00,
2013-01-11 04:24:00,57.4,53.8,29.99,West,270,0.0,-999.0,88,0.00,,,0.00,open2300 v1.10,2013-01-11 10:24:00,
2013-01-11 04:30:00,57.4,53.8,29.99,SSW,202,0.0,-999.0,88,0.00,,,0.00,open2300 v1.10,2013-01-11 10:30:00,
2013-01-11 04:39:00,57.4,53.8,30.00,SSW,202,0.0,-999.0,88,0.00,,,0.00,open2300 v1.10,2013-01-11 10:39:00,
2013-01-11 04:45:00,57.0,53.5,29.99,WSW,247,0.0,-999.0,88,0.00,,,0.00,open2300 v1.10,2013-01-11 10:45:00,
2013-01-11 04:54:00,57.0,53.5,29.99,SSW,202,0.0,-999.0,88,0.00,,,0.00,open2300 v1.10,2013-01-11 10:54:00,
2013-01-11 05:01:00,56.8,53.3,29.99,SSW,202,0.0,-999.0,88,0.00,,,0.00,open2300 v1.10,2013-01-11 11:01:00,
2013-01-11 05:09:00,56.5,53.0,30.00,SW,225,0.0,-999.0,88,0.00,,,0.00,open2300 v1.10,2013-01-11 11:09:00,
2013-01-11 05:15:00,56.3,52.8,30.00,WSW,247,0.0,-999.0,88,0.00,,,0.00,open2300 v1.10,2013-01-11 11:15:00,
2013-01-11 05:24:00,56.1,52.6,30.00,SW,225,0.0,-999.0,88,0.00,,,0.00,open2300 v1.10,2013-01-11 11:24:00,
2013-01-11 05:30:00,55.9,52.4,30.00,West,270,0.0,-999.0,88,0.00,,,0.00,open2300 v1.10,2013-01-11 11:30:00,
2013-01-11 05:39:00,55.8,52.2,30.00,SE,135,0.0,-999.0,88,0.00,,,0.00,open2300 v1.10,2013-01-11 11:39:00,
2013-01-11 05:45:00,55.4,52.2,30.00,SE,135,0.0,-999.0,89,0.00,,,0.00,open2300 v1.10,2013-01-11 11:45:00,
2013-01-11 05:54:00,55.0,51.8,30.01,SSE,157,0.0,-999.0,89,0.00,,,0.00,open2300 v1.10,2013-01-11 11:54:00,
2013-01-11 06:01:00,54.7,51.5,30.00,SSE,157,0.0,-999.0,89,0.00,,,0.00,open2300 v1.10,2013-01-11 12:01:00,
2013-01-11 06:09:00,54.3,51.1,30.01,SSE,157,0.0,-999.0,89,0.00,,,0.00,open2300 v1.10,2013-01-11 12:09:00,
2013-01-11 06:15:00,54.1,50.9,30.01,SSE,157,0.0,-999.0,89,0.00,,,0.00,open2300 v1.10,2013-01-11 12:15:00,
2013-01-11 06:24:00,54.0,51.1,30.01,SSE,157,0.0,-999.0,90,0.00,,,0.00,open2300 v1.10,2013-01-11 12:24:00,
2013-01-11 06:30:00,53.8,50.6,30.01,SSE,157,0.0,-999.0,89,0.00,,,0.00,open2300 v1.10,2013-01-11 12:30:00,
2013-01-11 06:39:00,53.4,50.2,30.01,SE,135,0.0,-999.0,89,0.00,,,0.00,open2300 v1.10,2013-01-11 12:39:00,
2013-01-11 06:45:00,53.2,50.4,30.01,SE,135,0.0,-999.0,90,0.00,,,0.00,open2300 v1.10,2013-01-11 12:45:00,
2013-01-11 06:54:00,53.2,50.4,30.01,SSW,202,0.0,-999.0,90,0.00,,,0.00,open2300 v1.10,2013-01-11 12:54:00,
2013-01-11 07:01:00,52.9,50.0,30.02,SSW,202,0.0,-999.0,90,0.00,,,0.00,open2300 v1.10,2013-01-11 13:01:00,
2013-01-11 07:09:00,52.9,50.0,30.02,South,180,0.0,-999.0,90,0.00,,,0.00,open2300 v1.10,2013-01-11 13:09:00,
2013-01-11 07:15:00,52.9,50.0,30.01,South,180,0.0,-999.0,90,0.00,,,0.00,open2300 v1.10,2013-01-11 13:15:00,
2013-01-11 07:24:00,52.7,49.8,30.02,South,180,0.0,-999.0,90,0.00,,,0.00,open2300 v1.10,2013-01-11 13:24:00,
2013-01-11 07:30:00,52.7,49.8,30.02,South,180,0.0,-999.0,90,0.00,,,0.00,open2300 v1.10,2013-01-11 13:30:00,
2013-01-11 07:39:00,52.7,50.1,30.02,SSE,157,0.0,-999.0,91,0.00,,,0.00,open2300 v1.10,2013-01-11 13:39:00,
2013-01-11 07:45:00,52.9,50.3,30.02,SSE,157,0.0,-999.0,91,0.00,,,0.00,open2300 v1.10,2013-01-11 13:45:00,
2013-01-11 07:54:00,53.8,51.2,30.03,SSE,157,0.0,-999.0,91,0.00,,,0.00,open2300 v1.10,2013-01-11 13:54:00,
2013-01-11 08:01:00,54.5,51.6,30.03,SSE,157,0.0,-999.0,90,0.00,,,0.00,open2300 v1.10,2013-01-11 14:01:00,
2013-01-11 08:09:00,54.9,52.0,30.03,SSE,157,0.0,-999.0,90,0.00,,,0.00,open2300 v1.10,2013-01-11 14:09:00,
2013-01-11 08:15:00,55.0,52.2,30.03,SSE,157,0.0,-999.0,90,0.00,,,0.00,open2300 v1.10,2013-01-11 14:15:00,
2013-01-11 08:24:00,55.9,53.1,30.04,WSW,247,0.0,-999.0,90,0.00,,,0.00,open2300 v1.10,2013-01-11 14:24:00,
2013-01-11 08:30:00,56.1,52.9,30.04,West,270,0.0,-999.0,89,0.00,,,0.00,open2300 v1.10,2013-01-11 14:30:00,
2013-01-11 08:39:00,56.5,53.0,30.04,SSE,157,0.0,-999.0,88,0.00,,,0.00,open2300 v1.10,2013-01-11 14:39:00,
2013-01-11 08:45:00,56.8,53.3,30.05,WNW,292,0.0,-999.0,88,0.00,,,0.00,open2300 v1.10,2013-01-11 14:45:00,
2013-01-11 08:54:00,58.3,54.1,30.04,SW,225,0.0,-999.0,86,0.00,,,0.00,open2300 v1.10,2013-01-11 14:54:00,
2013-01-11 09:01:00,59.2,54.0,30.04,SSE,157,0.0,-999.0,83,0.00,,,0.00,open2300 v1.10,2013-01-11 15:01:00,
2013-01-11 09:09:00,59.7,53.9,30.04,West,270,0.0,-999.0,81,0.00,,,0.00,open2300 v1.10,2013-01-11 15:09:00,
2013-01-11 09:15:00,60.6,54.1,30.05,West,270,0.0,-999.0,79,0.00,,,0.00,open2300 v1.10,2013-01-11 15:15:00,
2013-01-11 09:24:00,61.0,53.8,30.05,West,270,0.0,-999.0,77,0.00,,,0.00,open2300 v1.10,2013-01-11 15:24:00,
2013-01-11 09:30:00,60.6,52.7,30.05,South,180,0.0,-999.0,75,0.00,,,0.00,open2300 v1.10,2013-01-11 15:30:00,
2013-01-11 09:39:00,61.0,53.0,30.05,SW,225,0.0,-999.0,75,0.00,,,0.00,open2300 v1.10,2013-01-11 15:39:00,
2013-01-11 09:45:00,61.2,52.1,30.05,WSW,247,0.0,-999.0,72,0.00,,,0.00,open2300 v1.10,2013-01-11 15:45:00,
2013-01-11 09:54:00,62.2,53.1,30.05,South,180,0.0,-999.0,72,0.00,,,0.00,open2300 v1.10,2013-01-11 15:54:00,
2013-01-11 10:01:00,63.7,54.1,30.05,SSW,202,0.0,-999.0,71,0.00,,,0.00,open2300 v1.10,2013-01-11 16:01:00,
2013-01-11 10:09:00,65.7,54.4,30.05,West,270,0.0,-999.0,67,0.00,,,0.00,open2300 v1.10,2013-01-11 16:09:00,
2013-01-11 10:15:00,67.6,55.0,30.05,SSW,202,0.0,-999.0,64,0.00,,,0.00,open2300 v1.10,2013-01-11 16:15:00,
2013-01-11 10:24:00,68.9,54.9,30.05,SE,135,0.0,-999.0,61,0.00,,,0.00,open2300 v1.10,2013-01-11 16:24:00,
2013-01-11 10:30:00,69.1,54.2,30.05,SSE,157,0.0,-999.0,59,0.00,,,0.00,open2300 v1.10,2013-01-11 16:30:00,
2013-01-11 10:39:00,68.5,53.6,30.04,WSW,247,0.0,-999.0,59,0.00,,,0.00,open2300 v1.10,2013-01-11 16:39:00,
2013-01-11 10:45:00,69.6,54.2,30.04,South,180,0.0,-999.0,58,0.00,,,0.00,open2300 v1.10,2013-01-11 16:45:00,
2013-01-11 10:54:00,69.6,53.7,30.03,WSW,247,0.0,-999.0,57,0.00,,,0.00,open2300 v1.10,2013-01-11 16:54:00,
2013-01-11 11:01:00,69.4,52.5,30.03,West,270,0.0,-999.0,56,0.00,,,0.00,open2300 v1.10,2013-01-11 17:01:00,
2013-01-11 11:09:00,70.3,53.9,30.03,SSW,202,0.0,-999.0,56,0.00,,,0.00,open2300 v1.10,2013-01-11 17:09:00,
2013-01-11 11:15:00,70.2,53.2,30.03,WSW,247,0.0,-999.0,55,0.00,,,0.00,open2300 v1.10,2013-01-11 17:15:00,
2013-01-11 11:24:00,68.7,51.3,30.03,West,270,0.0,-999.0,54,0.00,,,0.00,open2300 v1.10,2013-01-11 17:24:00,
2013-01-11 11:30:00,69.1,51.7,30.02,WNW,292,0.0,-999.0,54,0.00,,,0.00,open2300 v1.10,2013-01-11 17:30:00,
2013-01-11 11:39:00,69.6,52.2,30.02,SSW,202,0.0,-999.0,54,0.00,,,0.00,open2300 v1.10,2013-01-11 17:39:00,
2013-01-11 11:45:00,68.7,51.3,30.03,West,270,0.0,-999.0,54,0.00,,,0.00,open2300 v1.10,2013-01-11 17:45:00,
2013-01-11 11:54:00,68.2,49.9,30.02,WNW,292,0.0,-999.0,52,0.00,,,0.00,open2300 v1.10,2013-01-11 17:54:00,
2013-01-11 12:01:00,68.7,50.4,30.01,West,270,0.0,-999.0,52,0.00,,,0.00,open2300 v1.10,2013-01-11 18:01:00,
2013-01-11 12:09:00,69.6,51.7,30.01,SSE,157,0.0,-999.0,53,0.00,,,0.00,open2300 v1.10,2013-01-11 18:09:00,
2013-01-11 12:15:00,70.2,51.7,30.01,SSE,157,0.0,-999.0,52,0.00,,,0.00,open2300 v1.10,2013-01-11 18:15:00,
2013-01-11 12:24:00,70.3,51.8,30.01,SSE,157,0.0,-999.0,52,0.00,,,0.00,open2300 v1.10,2013-01-11 18:24:00,
2013-01-11 12:30:00,70.3,50.8,30.00,West,270,0.0,-999.0,50,0.00,,,0.00,open2300 v1.10,2013-01-11 18:30:00,
2013-01-11 12:39:00,70.3,51.8,30.00,WNW,292,0.0,-999.0,52,0.00,,,0.00,open2300 v1.10,2013-01-11 18:39:00,
2013-01-11 12:45:00,70.0,51.0,30.00,SSW,202,0.0,-999.0,51,0.00,,,0.00,open2300 v1.10,2013-01-11 18:45:00,
2013-01-11 12:54:00,69.1,50.2,30.00,WSW,247,0.0,-999.0,51,0.00,,,0.00,open2300 v1.10,2013-01-11 18:54:00,
2013-01-11 13:01:00,69.4,50.0,29.99,SW,225,0.0,-999.0,51,0.00,,,0.00,open2300 v1.10,2013-01-11 19:01:00,
2013-01-11 13:09:00,69.6,51.2,29.99,WNW,292,0.0,-999.0,52,0.00,,,0.00,open2300 v1.10,2013-01-11 19:09:00,
2013-01-11 13:15:00,70.5,51.5,29.99,WSW,247,0.0,-999.0,51,0.00,,,0.00,open2300 v1.10,2013-01-11 19:15:00,
2013-01-11 13:24:00,70.7,51.7,29.99,WSW,247,0.0,-999.0,51,0.00,,,0.00,open2300 v1.10,2013-01-11 19:24:00,
2013-01-11 13:30:00,70.5,51.0,29.99,SSE,157,0.0,-999.0,50,0.00,,,0.00,open2300 v1.10,2013-01-11 19:30:00,
2013-01-11 13:39:00,69.6,50.2,29.99,WSW,247,0.0,-999.0,50,0.00,,,0.00,open2300 v1.10,2013-01-11 19:39:00,
2013-01-11 13:45:00,68.7,49.9,29.98,South,180,0.0,-999.0,51,0.00,,,0.00,open2300 v1.10,2013-01-11 19:45:00,
2013-01-11 13:54:00,69.6,51.2,29.98,SSE,157,0.0,-999.0,52,0.00,,,0.00,open2300 v1.10,2013-01-11 19:54:00,
2013-01-11 14:01:00,69.1,50.2,29.98,SSE,157,0.0,-999.0,51,0.00,,,0.00,open2300 v1.10,2013-01-11 20:01:00,
2013-01-11 14:09:00,69.6,50.7,29.98,South,180,0.0,-999.0,51,0.00,,,0.00,open2300 v1.10,2013-01-11 20:09:00,
2013-01-11 14:15:00,69.8,50.9,29.98,SSW,202,0.0,-999.0,51,0.00,,,0.00,open2300 v1.10,2013-01-11 20:15:00,
2013-01-11 14:24:00,69.1,50.2,29.98,SE,135,0.0,-999.0,51,0.00,,,0.00,open2300 v1.10,2013-01-11 20:24:00,
2013-01-11 14:30:00,68.4,49.5,29.98,SW,225,0.0,-999.0,51,0.00,,,0.00,open2300 v1.10,2013-01-11 20:30:00,
2013-01-11 14:39:00,68.2,49.9,29.97,SSE,157,0.0,-999.0,52,0.00,,,0.00,open2300 v1.10,2013-01-11 20:39:00,
2013-01-11 14:45:00,68.7,50.4,29.97,SSW,202,0.0,-999.0,52,0.00,,,0.00,open2300 v1.10,2013-01-11 20:45:00,
2013-01-11 14:54:00,68.7,50.4,29.97,SW,225,0.0,-999.0,52,0.00,,,0.00,open2300 v1.10,2013-01-11 20:54:00,
2013-01-11 15:01:00,68.5,50.2,29.97,SSW,202,0.0,-999.0,52,0.00,,,0.00,open2300 v1.10,2013-01-11 21:01:00,
2013-01-11 15:09:00,68.2,49.9,29.98,SSW,202,0.0,-999.0,52,0.00,,,0.00,open2300 v1.10,2013-01-11 21:09:00,
2013-01-11 15:15:00,67.8,49.5,29.97,SSW,202,0.0,-999.0,52,0.00,,,0.00,open2300 v1.10,2013-01-11 21:15:00,
2013-01-11 15:24:00,67.1,49.4,29.97,SSE,157,0.0,-999.0,53,0.00,,,0.00,open2300 v1.10,2013-01-11 21:24:00,
2013-01-11 15:30:00,66.9,49.2,29.97,South,180,0.0,-999.0,53,0.00,,,0.00,open2300 v1.10,2013-01-11 21:30:00,
2013-01-11 15:39:00,66.9,49.7,29.97,SW,225,0.0,-999.0,54,0.00,,,0.00,open2300 v1.10,2013-01-11 21:39:00,
2013-01-11 15:45:00,67.3,50.0,29.97,SW,225,0.0,-999.0,54,0.00,,,0.00,open2300 v1.10,2013-01-11 21:45:00,
2013-01-11 15:54:00,66.9,50.2,29.96,SSW,202,0.0,-999.0,55,0.00,,,0.00,open2300 v1.10,2013-01-11 21:54:00,
2013-01-11 16:01:00,66.6,49.9,29.96,SSW,202,0.0,-999.0,55,0.00,,,0.00,open2300 v1.10,2013-01-11 22:01:00,
2013-01-11 16:09:00,67.3,50.5,29.95,SW,225,0.0,-999.0,55,0.00,,,0.00,open2300 v1.10,2013-01-11 22:09:00,
2013-01-11 16:15:00,67.1,50.4,29.95,SW,225,0.0,-999.0,55,0.00,,,0.00,open2300 v1.10,2013-01-11 22:15:00,
2013-01-11 16:24:00,66.6,50.4,29.95,WSW,247,0.0,-999.0,56,0.00,,,0.00,open2300 v1.10,2013-01-11 22:24:00,
2013-01-11 16:30:00,66.2,50.5,29.95,SE,135,0.0,-999.0,57,0.00,,,0.00,open2300 v1.10,2013-01-11 22:30:00,
2013-01-11 16:39:00,66.0,50.3,29.95,SW,225,0.0,-999.0,57,0.00,,,0.00,open2300 v1.10,2013-01-11 22:39:00,
2013-01-11 16:45:00,65.5,49.8,29.95,SSW,202,0.0,-999.0,57,0.00,,,0.00,open2300 v1.10,2013-01-11 22:45:00,
2013-01-11 16:54:00,64.9,49.8,29.95,SSE,157,0.0,-999.0,58,0.00,,,0.00,open2300 v1.10,2013-01-11 22:54:00,
2013-01-11 17:01:00,64.0,49.4,29.96,SSW,202,0.0,-999.0,59,0.00,,,0.00,open2300 v1.10,2013-01-11 23:01:00,
2013-01-11 17:09:00,63.3,49.2,29.95,SSW,202,0.0,-999.0,60,0.00,,,0.00,open2300 v1.10,2013-01-11 23:09:00,
2013-01-11 17:15:00,62.6,49.0,29.96,SSW,202,0.0,-999.0,61,0.00,,,0.00,open2300 v1.10,2013-01-11 23:15:00,
2013-01-11 17:24:00,61.5,48.8,29.96,SSW,202,0.0,-999.0,63,0.00,,,0.00,open2300 v1.10,2013-01-11 23:24:00,
2013-01-11 17:30:00,61.0,48.3,29.96,SSW,202,0.0,-999.0,63,0.00,,,0.00,open2300 v1.10,2013-01-11 23:30:00,
2013-01-11 17:39:00,59.7,47.9,29.96,SSW,202,0.0,-999.0,65,0.00,,,0.00,open2300 v1.10,2013-01-11 23:39:00,
2013-01-11 17:45:00,58.8,47.9,29.96,SSW,202,0.0,-999.0,67,0.00,,,0.00,open2300 v1.10,2013-01-11 23:45:00,
2013-01-11 17:54:00,57.9,47.4,29.96,SSW,202,0.0,-999.0,68,0.00,,,0.00,open2300 v1.10,2013-01-11 23:54:00,
2013-01-11 18:01:00,57.0,47.3,29.96,SSW,202,0.0,-999.0,70,0.00,,,0.00,open2300 v1.10,2013-01-12 00:01:00,
2013-01-11 18:09:00,56.7,47.3,29.96,SSW,202,0.0,-999.0,71,0.00,,,0.00,open2300 v1.10,2013-01-12 00:09:00,
2013-01-11 18:15:00,56.1,47.5,29.96,SSW,202,0.0,-999.0,73,0.00,,,0.00,open2300 v1.10,2013-01-12 00:15:00,
2013-01-11 18:24:00,55.8,47.5,29.96,SSW,202,0.0,-999.0,74,0.00,,,0.00,open2300 v1.10,2013-01-12 00:24:00,
2013-01-11 18:30:00,55.6,47.7,29.96,SSW,202,0.0,-999.0,75,0.00,,,0.00,open2300 v1.10,2013-01-12 00:30:00,
2013-01-11 18:39:00,55.2,47.4,29.95,SSW,202,0.0,-999.0,75,0.00,,,0.00,open2300 v1.10,2013-01-12 00:39:00,
2013-01-11 18:45:00,54.7,47.2,29.95,SSW,202,0.0,-999.0,76,0.00,,,0.00,open2300 v1.10,2013-01-12 00:45:00,
2013-01-11 18:54:00,54.3,47.2,29.95,SSW,202,0.0,-999.0,77,0.00,,,0.00,open2300 v1.10,2013-01-12 00:54:00,
2013-01-11 19:01:00,54.7,47.6,29.94,SSW,202,0.0,-999.0,77,0.00,,,0.00,open2300 v1.10,2013-01-12 01:01:00,
2013-01-11 19:09:00,55.0,48.2,29.95,SSW,202,0.0,-999.0,78,0.00,,,0.00,open2300 v1.10,2013-01-12 01:09:00,
2013-01-11 19:15:00,55.9,49.5,29.94,South,180,0.0,-999.0,79,0.00,,,0.00,open2300 v1.10,2013-01-12 01:15:00,
2013-01-11 19:24:00,56.8,50.0,29.94,SW,225,0.0,-999.0,78,0.00,,,0.00,open2300 v1.10,2013-01-12 01:24:00,
2013-01-11 19:30:00,57.6,50.7,29.95,SSW,202,0.0,-999.0,78,0.00,,,0.00,open2300 v1.10,2013-01-12 01:30:00,
2013-01-11 19:39:00,57.9,50.7,29.95,SSW,202,0.0,-999.0,77,0.00,,,0.00,open2300 v1.10,2013-01-12 01:39:00,
2013-01-11 19:45:00,58.6,51.4,29.95,SSW,202,0.0,-999.0,77,0.00,,,0.00,open2300 v1.10,2013-01-12 01:45:00,
2013-01-11 19:54:00,58.8,51.6,29.96,SSE,157,0.0,-999.0,77,0.00,,,0.00,open2300 v1.10,2013-01-12 01:54:00,
2013-01-11 20:01:00,58.8,51.6,29.95,South,180,0.0,-999.0,77,0.00,,,0.00,open2300 v1.10,2013-01-12 02:01:00,
2013-01-11 20:09:00,58.8,51.6,29.95,SSE,157,0.0,-999.0,77,0.00,,,0.00,open2300 v1.10,2013-01-12 02:09:00,
2013-01-11 20:15:00,58.8,51.6,29.95,SSW,202,0.0,-999.0,77,0.00,,,0.00,open2300 v1.10,2013-01-12 02:15:00,
2013-01-11 20:24:00,58.8,51.6,29.95,SE,135,0.0,-999.0,77,0.00,,,0.00,open2300 v1.10,2013-01-12 02:24:00,
2013-01-11 20:30:00,58.8,52.0,29.96,SSE,157,0.0,-999.0,78,0.00,,,0.00,open2300 v1.10,2013-01-12 02:30:00,
2013-01-11 20:39:00,58.8,52.0,29.96,SSE,157,0.0,-999.0,78,0.00,,,0.00,open2300 v1.10,2013-01-12 02:39:00,
2013-01-11 20:45:00,59.2,52.3,29.96,SW,225,0.0,-999.0,78,0.00,,,0.00,open2300 v1.10,2013-01-12 02:45:00,
2013-01-11 20:54:00,59.2,52.3,29.96,SSE,157,0.0,-999.0,78,0.00,,,0.00,open2300 v1.10,2013-01-12 02:54:00,
2013-01-11 21:01:00,59.5,53.1,29.95,South,180,0.0,-999.0,79,0.00,,,0.00,open2300 v1.10,2013-01-12 03:01:00,
2013-01-11 21:09:00,59.7,53.6,29.95,South,180,0.0,-999.0,80,0.00,,,0.00,open2300 v1.10,2013-01-12 03:09:00,
2013-01-11 21:15:00,59.9,54.1,29.96,SSW,202,0.0,-999.0,81,0.00,,,0.00,open2300 v1.10,2013-01-12 03:15:00,
2013-01-11 21:24:00,60.3,54.8,29.95,South,180,0.0,-999.0,82,0.00,,,0.00,open2300 v1.10,2013-01-12 03:24:00,
2013-01-11 21:30:00,60.4,55.0,29.95,SW,225,0.0,-999.0,82,0.00,,,0.00,open2300 v1.10,2013-01-12 03:30:00,
2013-01-11 21:39:00,60.6,55.5,29.96,SSW,202,0.0,-999.0,83,0.00,,,0.00,open2300 v1.10,2013-01-12 03:39:00,
2013-01-11 21:45:00,60.6,55.5,29.96,SE,135,0.0,-999.0,83,0.00,,,0.00,open2300 v1.10,2013-01-12 03:45:00,
2013-01-11 21:54:00,60.4,55.6,29.96,South,180,0.0,-999.0,84,0.00,,,0.00,open2300 v1.10,2013-01-12 03:54:00,
2013-01-11 22:01:00,60.4,55.6,29.96,SSW,202,0.0,-999.0,84,0.00,,,0.00,open2300 v1.10,2013-01-12 04:01:00,
2013-01-11 22:09:00,60.6,55.8,29.96,South,180,0.0,-999.0,84,0.00,,,0.00,open2300 v1.10,2013-01-12 04:09:00,
2013-01-11 22:15:00,60.6,56.1,29.96,SSW,202,0.0,-999.0,85,0.00,,,0.00,open2300 v1.10,2013-01-12 04:15:00,
2013-01-11 22:24:00,61.0,56.5,29.96,SSE,157,0.0,-999.0,85,0.00,,,0.00,open2300 v1.10,2013-01-12 04:24:00,
2013-01-11 22:30:00,61.0,56.8,29.96,South,180,0.0,-999.0,86,0.00,,,0.00,open2300 v1.10,2013-01-12 04:30:00,
2013-01-11 22:39:00,61.2,57.0,29.96,SW,225,0.0,-999.0,86,0.00,,,0.00,open2300 v1.10,2013-01-12 04:39:00,
2013-01-11 22:45:00,61.2,57.0,29.96,WSW,247,0.0,-999.0,86,0.00,,,0.00,open2300 v1.10,2013-01-12 04:45:00,
2013-01-11 22:54:00,61.2,57.0,29.95,SSE,157,0.0,-999.0,86,0.00,,,0.00,open2300 v1.10,2013-01-12 04:54:00,
2013-01-11 23:01:00,61.2,57.0,29.95,SW,225,0.0,-999.0,86,0.00,,,0.00,open2300 v1.10,2013-01-12 05:01:00,
2013-01-11 23:09:00,61.2,57.3,29.95,SW,225,0.0,-999.0,87,0.00,,,0.00,open2300 v1.10,2013-01-12 05:09:00,
2013-01-11 23:15:00,61.2,57.3,29.95,SW,225,0.0,-999.0,87,0.00,,,0.00,open2300 v1.10,2013-01-12 05:15:00,
2013-01-11 23:24:00,61.3,57.5,29.95,SSE,157,0.0,-999.0,87,0.00,,,0.00,open2300 v1.10,2013-01-12 05:24:00,
2013-01-11 23:30:00,61.3,57.8,29.95,SSW,202,0.0,-999.0,88,0.00,,,0.00,open2300 v1.10,2013-01-12 05:30:00,
2013-01-11 23:39:00,61.5,58.0,29.95,SSW,202,0.0,-999.0,88,0.00,,,0.00,open2300 v1.10,2013-01-12 05:39:00,
2013-01-11 23:45:00,61.7,58.2,29.95,SSW,202,0.0,-999.0,88,0.00,,,0.00,open2300 v1.10,2013-01-12 05:45:00,
2013-01-11 23:54:00,62.1,58.5,29.95,SW,225,0.0,-999.0,88,0.00,,,0.00,open2300 v1.10,2013-01-12 05:54:00,